Location: Dittelbrunn
(50.0738°N, 10.2196°E)
Time: 13:30:04
(UTC+00:00)

ARGOS - Pass Details

Date: 18 September 2020
Orbit: 821 x 834 km, 98.4° (Epoch: 22 October)

Event Time Altitude Azimuth Distance (km) Brightness Sun altitude
Rises 19:14:48 0° 186° (S) 3,341 6.1 -17.8°
Reaches altitude 10° 19:17:17 10° 194° (SSW) 2,414 5.5 -18.2°
Maximum altitude 19:22:17 39° 263° (W) 1,210 4.4 -18.9°
Drops below altitude 10° 19:27:20 10° 332° (NNW) 2,436 6.4 -19.6°
Sets 19:29:51 0° 340° (NNW) 3,376 7.1 -20.0°
